Preview of NWS' New Version of Forecast
This preview is not operational and should not be used for support decisions.
Latest weather observations around

Los Angeles, Los Angeles International Airport (KLAX)

Using English Units (Switch to International System of Units)
Date/ Time (PDT) Wind (mph) Vis. (mi) Weather Sky Cond. Temp (°F) Rel. Humidity Wind Chill (°F) Heat Index (°F) Pressure Precip. (in)
Air Dwpt 6 hour Altimeter (inHg) Sea level (inHg) 1 hr 3 hr 6 hr
Max Min
May 22 05:53 W 6 10 Mostly Cloudy FEW012 FEW040 SCT070 SCT140 BKN220 56 47     72%     29.7 29.7      
May 22 04:53   10 Mostly Cloudy FEW012 BKN035 BKN065 BKN200 BKN280 57 48     72%     29.71 29.7      
May 22 03:53 W 10 10 Mostly Cloudy FEW012 FEW032 SCT070 SCT200 BKN280 57 49     74%     29.71 29.71      
May 22 02:53 W 14 10 Partly Cloudy FEW040 SCT070 SCT200 57 49     74%     29.72 29.71      
May 22 01:53 W 10 10 Partly Cloudy FEW040 FEW070 SCT200 58 50     75%     29.73 29.72      
May 22 00:53 W 13 10 Partly Cloudy FEW040 FEW070 SCT200 59 49     69%     29.75 29.75      
May 21 23:53 Calm 10 Mostly Cloudy FEW040 BKN065 BKN200 61 49     64%     29.77 29.76      
May 21 22:53 Calm 10 Partly Cloudy FEW040 SCT070 SCT200 60 50     69%     29.77 29.77      
May 21 21:53 Calm 10 Partly Cloudy FEW042 FEW075 SCT200 SCT280 60 49     67%     29.77 29.76      
May 21 20:53 Calm 10 Mostly Clear FEW060 FEW250 61 49     64%     29.75        
May 21 19:53 WNW 20 10 Partly Cloudy and Windy FEW060 SCT200 62 48     60%     29.75        
May 21 18:53 W 22 10 Mostly Cloudy and Windy FEW060 BKN200 62 49     62%     29.75        
May 21 17:53 W 26 10 Mostly Cloudy and Breezy FEW060 BKN200 63 50     63%     29.77        
May 21 16:53   10 Clear CLR 64 50     60%     29.79        
May 21 15:53 WSW 24 10 Partly Cloudy and Windy FEW025 FEW060 SCT250 65 49     56%     29.82        
May 21 14:53 WSW 21 10 Partly Cloudy and Windy FEW025 SCT200 65 49     56%     29.84        
May 21 13:53 WSW 17 10 Partly Cloudy FEW010 FEW025 SCT160 65 49     56%     29.86        
May 21 12:53 WSW 18 9 Partly Cloudy FEW010 FEW030 SCT160 63 52     67%     29.9        
May 21 11:53 WSW 16 9 Partly Cloudy FEW018 FEW030 SCT160 62 51     67%     29.91        
May 21 10:53 WSW 14 9 Mostly Cloudy FEW018 SCT030 BKN160 61 51     70%     29.92        
May 21 09:53 WSW 7 9 Mostly Cloudy FEW015 SCT030 BKN140 60 52     75%     29.93        
May 21 09:24 W 10 9 Mostly Cloudy FEW019 BKN030 BKN140 60 53     78%     29.93        
May 21 09:13 SW 9 9 Mostly Cloudy SCT019 BKN029 62 52     70%     29.93        
May 21 08:53 SW 9 9 Clear   61 52     72%     29.93        
May 21 07:53 W 3 10 Mostly Cloudy BKN019 BKN029 59 51     75%     29.93 29.92      
May 21 06:53 WSW 3 9 Cloudy BKN019 OVC025 58 51     78%     29.93 29.93      
May 21 05:53 SW 3 10 Mostly Cloudy FEW018 BKN026 BKN042 BKN200 58 50     75%     29.93 29.92      
May 21 05:37 SW 5 10 Mostly Cloudy FEW018 BKN026 BKN160 BKN220 58 51     78%     29.93        
May 21 04:53 W 3 10 Mostly Cloudy SCT022 BKN038 58 50     75%     29.94 29.93      
May 21 03:53 3 10 Mostly Cloudy SCT022 BKN038 57 50     77%     29.94 29.93      
May 21 03:50 3 10 Mostly Cloudy SCT022 BKN038 55 48     77%     29.94        
May 21 03:22 SW 7 10 Mostly Cloudy BKN022 57 49     74%     29.94        
May 21 02:59     Cloudy OVC029 58 50     75%     29.95        
May 21 02:53 SW 6 10 Mostly Cloudy SCT018 BKN090 BKN200 58 50     75%     29.95 29.94      
May 21 01:53 SW 7 10 Mostly Cloudy SCT018 BKN090 BKN200 58 50     75%     29.96 29.96      
May 21 01:18 SSW 8 10 Mostly Cloudy BKN017 BKN090 BKN200 58 51     78%     29.96        
May 21 00:53 SW 9 10 Mostly Cloudy FEW018 FEW090 BKN200 BKN280 58 50     75%     29.97 29.96      
May 20 23:53 SW 8 10 Mostly Cloudy FEW028 FEW090 SCT200 BKN280 58 51     78%     29.97 29.97      
May 20 22:53 W 10 10 Mostly Cloudy FEW060 FEW120 SCT200 BKN280 58 51     78%     29.97 29.96      
May 20 21:53 W 13 10 Mostly Clear FEW060 FEW250 58 51     78%     29.97 29.97      
May 20 20:53 W 14 10 Partly Cloudy FEW060 FEW150 SCT250 59 51     75%     29.95 29.95      
May 20 19:53 W 16 10 Mostly Clear FEW060 FEW250 60 50     69%     29.93 29.93      
May 20 18:53 WSW 21 10 Mostly Clear and Windy FEW060 62 49     62%     29.92 29.92      
May 20 17:53   10 Mostly Clear FEW065 FEW250 63 49     60%     29.92 29.92      
May 20 16:53 W 23 10 Mostly Clear and Windy FEW065 66 49     54%     29.92 29.91      
May 20 15:53 W 22 10 Mostly Clear and Windy FEW010 FEW065 65 50     58%     29.92 29.92      
May 20 14:53 W 18 10 Mostly Clear FEW010 FEW065 66 50     56%     29.93 29.93      
May 20 13:53 W 18 10 Mostly Clear FEW010 FEW032 67 48     51%     29.92 29.92      
May 20 12:53 W 20 10 Partly Cloudy and Windy FEW010 FEW030 SCT050 66 48     52%     29.92 29.92      
May 20 11:53 SW 14 10 Partly Cloudy FEW010 FEW030 SCT050 64 49     58%     29.92 29.91      
May 20 10:53 W 10 10 Partly Cloudy FEW010 FEW027 SCT045 63 49     60%     29.91 29.91      
May 20 09:53 W 10 10 Partly Cloudy FEW010 SCT025 61 49     64%     29.91 29.91      
May 20 08:53 W 7 10 Partly Cloudy FEW024 FEW050 SCT140 60 48     64%     29.9 29.9      
May 20 07:53 WSW 8 10 Partly Cloudy FEW016 FEW047 SCT140 58 48     70%     29.88 29.88      
May 20 06:53 SW 6 10 Partly Cloudy FEW015 FEW045 SCT140 57 49     74%     29.87 29.87      
May 20 05:53 Calm 10 Partly Cloudy FEW015 FEW024 SCT050 SCT140 55 48     77%     29.86 29.85      
May 20 04:53 3 10 Partly Cloudy FEW015 SCT022 56 47     72%     29.85 29.85      
May 20 04:45 3 10 Partly Cloudy FEW015 SCT022 56 47     72%     29.85        
May 20 03:53 N 6 10 Mostly Cloudy FEW014 BKN018 56 49     77%     29.86 29.85      
May 20 03:49 N 6 10 Mostly Cloudy FEW014 BKN018 55 48     77%     29.85        
May 20 02:53 W 18 10 Partly Cloudy FEW015 SCT028 SCT080 56 50     80%     29.84 29.84      
May 20 01:53   10 Partly Cloudy FEW016 FEW030 SCT080 57 50     77%     29.85 29.85      
May 20 00:53 W 14 10 Partly Cloudy FEW016 FEW022 SCT050 57 50     77%     29.88 29.87      
May 19 23:53 W 21 10 Partly Cloudy and Windy FEW016 FEW022 SCT040 57 51     81%     29.87 29.87      
May 19 22:53 W 17 10 Partly Cloudy FEW014 SCT029 SCT038 58 50     75%     29.89 29.88     0
May 19 21:53 W 16 10 Mostly Cloudy SCT014 BKN027 BKN035 58 52     81%     29.9 29.89 0    
May 19 21:04 W 11 10 Partly Cloudy FEW014 SCT040 SCT048 58 53     84%     29.88   0    
May 19 20:53 W 11 7 Light Rain FEW013 BKN020 OVC055 58 53     84%     29.88 29.88 0    
May 19 20:34 W 11 10 Mostly Cloudy SCT019 BKN050 BKN080 60 52     75%     29.87        
May 19 20:19 W 11 10 Mostly Cloudy SCT019 BKN024 BKN060 60 52     75%     29.88        
May 19 19:53 WSW 16 10 Cloudy FEW021 BKN060 OVC075 60 52     75%     29.87 29.87      
May 19 19:34 W 17 10 Cloudy FEW021 SCT055 OVC075 60 52     75%     29.87        
May 19 18:53 W 16 10 Mostly Cloudy SCT021 BKN027 BKN049 61 51     70%     29.87 29.86      
May 19 17:53 WSW 17 10 Mostly Clear FEW018 FEW026 62 50     65%     29.87 29.87      
May 19 16:53 WSW 20 10 Partly Cloudy and Windy FEW018 FEW026 SCT150 62 51     67%     29.87 29.87     0
May 19 15:53 WSW 16 10 Partly Cloudy FEW018 FEW026 SCT150 62 52     70%     29.89 29.88      
May 19 14:53 WSW 13 10 Mostly Clear FEW026 FEW150 63 52     67%     29.9 29.9      
May 19 13:53 WSW 7 10 Partly Cloudy FEW019 SCT026 SCT130 62 52     70%     29.9 29.9   0  
May 19 13:34 W 10 10 Mostly Cloudy FEW019 SCT025 BKN065 62 53     72%     29.9        
May 19 12:53 WNW 6 10 Mostly Cloudy SCT019 BKN024 BKN070 60 52     75%     29.92 29.91 0    
May 19 11:53 Calm 10 Light Rain FEW011 BKN017 OVC022 58 51     78%     29.92 29.92 0    
May 19 11:03 ESE 7 10 Cloudy SCT011 BKN016 OVC021 58 51     78%     29.91        
May 19 10:53 E 8 10 Cloudy BKN010 OVC015 57 51     81%     29.91 29.91     0
May 19 09:53 ESE 10 10 Cloudy BKN010 BKN014 OVC022 55 52     89%     29.9 29.89 0    
May 19 09:01 E 8 3 Fog/Mist SCT008 BKN013 OVC021 54 51     90%     29.9   0    
May 19 08:53 E 11 2.5 Light Rain and Fog/Mist SCT008 BKN014 OVC020 54 50     86%     29.89 29.89 0    
May 19 08:39 E 10 2 Rain and Fog/Mist SCT008 BKN013 OVC022 54 50     86%     29.89   0    
May 19 07:53 E 7 10 Cloudy FEW020 SCT026 BKN034 OVC130 54 50     86%     29.88 29.87 0 0  
May 19 06:53 E 3 10 Light Rain SCT024 BKN047 BKN060 OVC130 53 49     86%     29.88 29.87 0    
May 15 08:53 SSW 8 8 Mostly Cloudy BKN021 62 52     70%     30.06 30.05      
May 14 11:53 WSW 17 8 Partly Cloudy FEW027 SCT140 SCT180 65 53     65%     30.01 30      
May 14 09:09 6 7 Mostly Cloudy SCT018 BKN140 63 53     70%     29.99        
May 11 17:53 ESE 7 10 Mostly Cloudy BKN025 BKN031 63 52     67%     29.82 29.81      
Jun 12 02:53 E 6 10 Mostly Clear FEW090 FEW220 57 51     81%     29.97 29.96      
Jun 10 23:53 SW 6 10 Clear   63 57     81%     29.87 29.86      
Jun 10 06:53 WSW 6 10 Cloudy BKN020 OVC026 62 58     86%     29.88 29.87      
Jun 10 05:53 WSW 3 10 Mostly Cloudy BKN023 62 57     84%     29.87 29.86      
Jun 09 15:53 WSW 14 10 Partly Cloudy FEW013 SCT100 69 60     73%     29.91 29.9      
Jun 09 12:53 WSW 14 9 Mostly Clear FEW017 FEW120 70 55     59%     29.96 29.95      
Jun 09 00:53 SSW 3 10 Mostly Clear FEW011 61 56     83%     29.94 29.93      
Jun 08 16:53 WSW 21 10 Clear and Windy   67 57     71%     29.95 29.95      
Jun 08 05:53 W 7 4 Clear   61 60     97%     29.99 29.98 0    
Jun 07 15:53 WSW 13 10 Mostly Clear FEW022 68 59     73%     29.94 29.93      
Jun 07 12:53 7 7 Cloudy OVC016 65 59     81%     29.98 29.98      
Jun 07 10:53 WSW 9 6 Haze SCT012 OVC014 63 59     87%     29.97 29.97     0
Jun 07 09:53 WSW 7 5 Fog/Mist BKN013 OVC018 63 59     87%     29.96 29.96